Вернуться в каталог

KUIPER-00415

АктивенСвязьLEO
NORAD 68930·PAYLOAD·🇺🇸 United States

Запущен Apr 30, 2026 с Guiana Space Centre

Loading…

Ближайшие Пролёты (ближайшие 24 часа)

TLE

СвежийSource: CelesTrak SupGP

Эпоха: Sep 14, 2026, 12:41 UTC

1 68930C 26098M   26257.52906250 -.00000293  00000+0 -38320-4 0  2574
2 68930  51.9024  18.0992 0000549 100.3220 139.7610 14.79933846    16

Отслеживайте KUIPER-00415 в реальном времени с AllMySat

Download on the App Store